Find Starlink 35445

NORAD ID: 65880 Int'l Des: 2025-223 Owner: SPXS Country: US Constellation: starlink operational
LEOCIRCULAR

Live Position

Loading 3D Globe...

About Starlink 35445

Description loading...

Upcoming Passes

Passes for default location (London). Set your location on the main map for personalized predictions.

Altitude History

Loading altitude history...

Two-Line Element Set

1 65880U 25223AC 26106.31110470 .00008423 00000-0 29618-3 0 9999
2 65880 53.1578 119.5638 0001129 81.0956 279.0173 15.30200772 29965
Epoch: Apr 16, 2026 • Age: 24 hours

Current Status

Altitude 486.4 km
Velocity 7.62 km/s
Sub-Earth Point -33.84°S, 0.03°E
Launch Date Oct 3, 2025
Age 0.5 years
Type internet

Technical Details

Classification Payload
Mass 575.00 kg
Dry Mass 530.00 kg
Total Mass 575.00 kg
Length 0.30 m
Diameter 4.10 m
Span 29.00 m
Shape Box + pan
Manufacturer SPXS
Bus Type Starlink V2MO
Phase Status In Orbit
Owner/State SPXS/US

Most Searched